STARLINK-4708 (53776 NORAD) Tracking and Keplerian Element Data

This shows tracking and keplerian element data for the satellite.

Feedback or suggestion? Click here.




ElementValue
Catalog53776
NameSTARLINK-4708
Epoch Orbit1099
Epoch Day325.33334491
Epoch Year2022
RAAN285.8034
Inclination53.2149
Eccentricity0.0001771
Argument of Perigee56.4651
Mean Anonmoly74.7435
Mean Motion15.08813791
Decay Rate0.00054645
L11 53776U 22111D 22325.33334491 .00054645 00000+0 34275-2 0 9995
L22 53776 53.2149 285.8034 0001771 56.4651 74.7435 15.08813791 10999



Live tracking and technical data element details for STARLINK-4708 (NORAD 53776). STARLINK-4708 can be tracked NOW for your location showing map with azimuth and elevation plus other details from your city location.







IsCatalogInMostPopularTable: catalog: 53776, numindb: -1

Insert: records affected: 1


GetName: 53776 STARLINK-4708

Hit Count: inserted at: Mon, 28 Nov 2022 04:38:55 GMT